Regional Weather Roundup
Issued by NWS Binghamton, NY

Home | Current Version | Previous Version | Text Only | Print | Product List | Glossary On
Versions: 1 2 3 4 5 6 7 8 9 10 11 12 13 14 15 16 17 18 19 20 21 22 23 24 25 26 27 28 29 30 31 32 33 34 35 36 37 38 39 40 41 42 43 44 45 46 47 48 49 50
000
ASUS41 KBGM 271510
RWRBGM
RWRBGM
BINGHAMTON REGIONAL WEATHER ROUNDUP
NATIONAL WEATHER SERVICE BINGHAMTON NY
1100 AM EDT FRI MAR 27 2015

Note: "fair" indicates few or no clouds below 12,000 feet with no
significant weather and/or obstructions to visibility.

* = Station(s) that does not report precipitation, such as rain,
snow, etc, also no thunder or fog.

!NYZ009-015>018-022>025-036-037-044>046-055>057-062-271600
...CENTRAL NEW YORK...

CITY           SKY/WX    TMP DP  RH WIND       PRES   REMARKS
BINGHAMTON     CLOUDY    32  26  78 NW8       29.77S WCI  25
CORTLAND       CLOUDY    34  32  93 W7        29.81R WCI  28
DANSVILLE      CLOUDY    35  30  82 N12       29.84R WCI  27
ELMIRA         MOSUNNY   39  26  59 W7G16     29.79F WCI  34
ITHACA         FLURRIES  33  28  82 NW9       29.82R WCI  25
MONTICELLO     CLOUDY    36  28  75 NW9       29.75R WCI  29
NORWICH        CLOUDY    34  27  75 NW7         N/A  WCI  28
ONEONTA        CLOUDY    30  28  93 NW6       29.73S WCI  24
PENN YAN       CLOUDY    36  26  67 NW8       29.82R WCI  30
ROME           MIX PCPN  34  31  88 W9        29.82R WCI  27
SIDNEY         CLOUDY    37  34  87 NW9       29.78F WCI  31
SYRACUSE       CLOUDY    36  31  82 W8        29.82R WCI  30
$$

!PAZ038>040-043-044-047-048-072-271600
...NORTHEAST PENNSYLVANIA...

CITY           SKY/WX    TMP DP  RH WIND       PRES   REMARKS
HAZLETON       CLOUDY    36  27  69 NW10G16   29.78S WCI  28
SCRANTON       CLOUDY    39  28  64 NW13G20   29.78S WCI  31
TOWANDA*       MOSUNNY   39  25  56 N9        29.80F WCI  33
$$
&&
KEY
WCI = WIND CHILL INDEX
VSB = VISIBILITY
HX  = HEAT INDEX
$$



USA.gov is the U.S. government's official web portal to all federal, state and local government web resources and services.